• In Hungary
  • List of Countries
  • For 7 days
  • Water Temperature
  • Satellite Maps
  • Weather Map
  • News
  • Weather Widgets
  • user-avatar
    Login

    Hourly Weather Mutaevo

    Today, 17 July, Tuesday

    Time Temperature Precipitation Wind Pressure Humidity
    00:00 +20°C° 0 mm 4 mps 740 mmHg 83%
    01:00 +20°C° 0 mm 4 mps 740 mmHg 81%
    02:00 +20°C° 0 mm 4 mps 740 mmHg 80%
    03:00 +20°C° 0 mm 4 mps 740 mmHg 78%
    04:00 +20°C° 0 mm 5 mps 740 mmHg 78%
    05:00 +20°C° 0 mm 5 mps 740 mmHg 76%
    06:00 +21°C° 0 mm 5 mps 740 mmHg 75%
    07:00 +21°C° 0 mm 5 mps 740 mmHg 74%
    08:00 +23°C° 0 mm 5 mps 740 mmHg 70%
    09:00 +25°C° 0 mm 5 mps 740 mmHg 66%
    10:00 +27°C° 0 mm 5 mps 740 mmHg 63%
    11:00 +28°C° 0 mm 5 mps 740 mmHg 60%
    12:00 +28°C° 0 mm 5 mps 740 mmHg 58%
    13:00 +29°C° 0 mm 5 mps 740 mmHg 56%
    14:00 +29°C° 0.1 mm 5 mps 739 mmHg 58%
    15:00 +29°C° 0.1 mm 4 mps 739 mmHg 61%
    16:00 +29°C° 0.1 mm 4 mps 739 mmHg 63%
    17:00 +27°C° 0.4 mm 4 mps 739 mmHg 70%
    18:00 +25°C° 0.4 mm 3 mps 738 mmHg 77%
    19:00 +24°C° 0.4 mm 3 mps 738 mmHg 84%
    20:00 +22°C° 1.1 mm 4 mps 738 mmHg 86%
    21:00 +21°C° 1.1 mm 4 mps 738 mmHg 87%
    22:00 +21°C° 1.1 mm 5 mps 738 mmHg 89%
    23:00 +21°C° 0.3 mm 5 mps 738 mmHg 87%

    Tomorrow, 18 July, Wednesday

    Time Temperature Precipitation Wind Pressure Humidity
    00:00 +20°C° 0.3 mm 5 mps 737 mmHg 85%
    01:00 +20°C° 0.3 mm 5 mps 737 mmHg 82%
    02:00 +20°C° 0.2 mm 5 mps 737 mmHg 80%
    03:00 +20°C° 0.2 mm 5 mps 737 mmHg 77%
    04:00 +20°C° 0.2 mm 5 mps 737 mmHg 74%
    05:00 +20°C° 0.6 mm 5 mps 737 mmHg 78%
    06:00 +20°C° 0.6 mm 5 mps 737 mmHg 81%
    07:00 +20°C° 0.6 mm 5 mps 737 mmHg 85%
    08:00 +20°C° 0.2 mm 5 mps 737 mmHg 84%
    09:00 +21°C° 0.2 mm 5 mps 737 mmHg 83%
    10:00 +21°C° 0.2 mm 5 mps 737 mmHg 81%
    11:00 +22°C° 0.2 mm 6 mps 737 mmHg 79%
    12:00 +22°C° 0.2 mm 6 mps 737 mmHg 77%
    13:00 +23°C° 0.2 mm 7 mps 738 mmHg 75%
    14:00 +22°C° 1.4 mm 6 mps 737 mmHg 80%
    15:00 +21°C° 1.4 mm 5 mps 737 mmHg 86%
    16:00 +20°C° 1.4 mm 5 mps 737 mmHg 92%
    17:00 +20°C° 0.6 mm 4 mps 737 mmHg 92%
    18:00 +20°C° 0.6 mm 3 mps 737 mmHg 91%
    19:00 +20°C° 0.6 mm 3 mps 737 mmHg 91%
    20:00 +20°C° 0.1 mm 2 mps 737 mmHg 92%
    21:00 +19°C° 0.1 mm 2 mps 737 mmHg 93%
    22:00 +18°C° 0.1 mm 2 mps 737 mmHg 94%
    23:00 +18°C° 0.1 mm 2 mps 737 mmHg 94%

    Day after tomorrow, 19 July, Thursday

    Time Temperature Precipitation Wind Pressure Humidity
    00:00 +18°C° 0.1 mm 2 mps 737 mmHg 94%
    01:00 +18°C° 0.1 mm 2 mps 738 mmHg 95%
    02:00 +18°C° 0.3 mm 2 mps 738 mmHg 95%
    03:00 +18°C° 0.3 mm 1 mps 738 mmHg 95%
    04:00 +18°C° 0.3 mm 1 mps 738 mmHg 95%
    05:00 +19°C° 0.1 mm 1 mps 738 mmHg 94%
    06:00 +20°C° 0.1 mm 1 mps 738 mmHg 92%
    07:00 +22°C° 0.1 mm 1 mps 738 mmHg 90%
    08:00 +23°C° 0.3 mm 2 mps 738 mmHg 86%
    09:00 +25°C° 0.3 mm 2 mps 739 mmHg 81%
    10:00 +27°C° 0.3 mm 2 mps 739 mmHg 77%
    11:00 +28°C° 0.3 mm 2 mps 739 mmHg 70%
    12:00 +29°C° 0.3 mm 2 mps 739 mmHg 63%
    13:00 +30°C° 0.3 mm 2 mps 739 mmHg 56%
    14:00 +30°C° 0.1 mm 2 mps 739 mmHg 56%
    15:00 +30°C° 0.1 mm 2 mps 739 mmHg 57%
    16:00 +30°C° 0.1 mm 2 mps 739 mmHg 57%
    17:00 +29°C° 0.2 mm 1 mps 739 mmHg 63%
    18:00 +28°C° 0.2 mm 1 mps 739 mmHg 70%
    19:00 +27°C° 0.2 mm 1 mps 739 mmHg 76%
    20:00 +25°C° 0 mm 1 mps 739 mmHg 79%
    21:00 +23°C° 0 mm 1 mps 739 mmHg 82%
    22:00 +22°C° 0 mm 1 mps 740 mmHg 85%
    23:00 +21°C° 0 mm 1 mps 740 mmHg 86%

    20 July, Friday

    Time Temperature Precipitation Wind Pressure Humidity
    00:00 +21°C° 0 mm 1 mps 740 mmHg 87%
    01:00 +20°C° 0 mm 1 mps 740 mmHg 88%
    02:00 +20°C° 0 mm 1 mps 740 mmHg 88%
    03:00 +20°C° 0 mm 1 mps 740 mmHg 88%
    04:00 +20°C° 0 mm 1 mps 740 mmHg 89%
    05:00 +21°C° 0.1 mm 1 mps 740 mmHg 86%
    06:00 +22°C° 0.1 mm 1 mps 740 mmHg 84%
    07:00 +23°C° 0.1 mm 1 mps 740 mmHg 81%
    08:00 +25°C° 0.4 mm 1 mps 740 mmHg 76%
    09:00 +26°C° 0.4 mm 1 mps 740 mmHg 71%
    10:00 +28°C° 0.4 mm 1 mps 740 mmHg 66%
    11:00 +29°C° 0.1 mm 1 mps 740 mmHg 62%
    12:00 +29°C° 0.1 mm 1 mps 740 mmHg 58%
    13:00 +30°C° 0.1 mm 1 mps 740 mmHg 54%
    14:00 +30°C° 0.2 mm 1 mps 740 mmHg 57%
    15:00 +30°C° 0.2 mm 1 mps 740 mmHg 60%
    16:00 +29°C° 0.2 mm 2 mps 740 mmHg 63%
    17:00 +28°C° 0.5 mm 2 mps 740 mmHg 70%
    18:00 +27°C° 0.5 mm 2 mps 740 mmHg 78%
    19:00 +25°C° 0.5 mm 2 mps 740 mmHg 85%
    20:00 +24°C° 0 mm 2 mps 740 mmHg 87%
    21:00 +23°C° 0 mm 2 mps 740 mmHg 89%
    22:00 +21°C° 0 mm 2 mps 740 mmHg 91%
    23:00 +20°C° 0 mm 3 mps 740 mmHg 91%

    21 July, Saturday

    Time Temperature Precipitation Wind Pressure Humidity
    00:00 +20°C° 0 mm 3 mps 740 mmHg 92%
    01:00 +19°C° 0 mm 4 mps 740 mmHg 92%
    02:00 +19°C° 0 mm 4 mps 740 mmHg 92%
    03:00 +19°C° 0 mm 4 mps 740 mmHg 92%
    04:00 +19°C° 0 mm 4 mps 740 mmHg 92%
    05:00 +19°C° 0 mm 5 mps 740 mmHg 89%
    06:00 +20°C° 0 mm 5 mps 741 mmHg 87%
    07:00 +21°C° 0 mm 5 mps 741 mmHg 84%
    08:00 +22°C° 0 mm 5 mps 741 mmHg 78%
    09:00 +23°C° 0 mm 6 mps 741 mmHg 72%
    10:00 +26°C° 0 mm 6 mps 741 mmHg 66%
    11:00 +26°C° 0 mm 6 mps 741 mmHg 63%
    12:00 +27°C° 0 mm 6 mps 741 mmHg 61%
    13:00 +28°C° 0 mm 6 mps 741 mmHg 59%
    14:00 +27°C° 0 mm 6 mps 741 mmHg 60%
    15:00 +27°C° 0 mm 6 mps 741 mmHg 61%
    16:00 +27°C° 0 mm 6 mps 741 mmHg 62%
    17:00 +26°C° 0 mm 5 mps 741 mmHg 65%
    18:00 +26°C° 0 mm 5 mps 742 mmHg 69%
    19:00 +25°C° 0 mm 4 mps 742 mmHg 72%
    20:00 +23°C° 0 mm 4 mps 742 mmHg 73%
    21:00 +22°C° 0 mm 5 mps 742 mmHg 73%
    22:00 +21°C° 0 mm 5 mps 742 mmHg 74%
    23:00 +20°C° 0 mm 5 mps 742 mmHg 74%

    22 July, Sunday

    Time Temperature Precipitation Wind Pressure Humidity
    00:00 +20°C° 0 mm 5 mps 742 mmHg 75%
    01:00 +19°C° 0 mm 5 mps 743 mmHg 76%
    02:00 +19°C° 0 mm 5 mps 743 mmHg 77%
    03:00 +17°C° 0 mm 5 mps 743 mmHg 79%
    04:00 +17°C° 0 mm 5 mps 743 mmHg 80%
    05:00 +17°C° 0 mm 6 mps 743 mmHg 79%
    06:00 +19°C° 0 mm 6 mps 743 mmHg 77%
    07:00 +19°C° 0 mm 6 mps 744 mmHg 75%
    08:00 +20°C° 0 mm 6 mps 744 mmHg 70%
    09:00 +22°C° 0 mm 6 mps 744 mmHg 65%
    10:00 +23°C° 0 mm 6 mps 744 mmHg 59%
    11:00 +23°C° 0 mm 6 mps 744 mmHg 57%
    12:00 +24°C° 0 mm 6 mps 744 mmHg 54%
    13:00 +26°C° 0 mm 6 mps 744 mmHg 51%
    14:00 +24°C° 0 mm 6 mps 744 mmHg 51%
    15:00 +24°C° 0 mm 6 mps 744 mmHg 51%
    16:00 +25°C° 0 mm 5 mps 744 mmHg 52%
    17:00 +23°C° 0 mm 5 mps 745 mmHg 56%
    18:00 +22°C° 0 mm 4 mps 745 mmHg 60%
    19:00 +21°C° 0 mm 4 mps 745 mmHg 65%
    20:00 +19°C° 0 mm 4 mps 745 mmHg 65%
    21:00 +18°C° 0 mm 4 mps 745 mmHg 64%
    22:00 +15°C° 0 mm 4 mps 746 mmHg 64%
    23:00 +15°C° 0 mm 4 mps 746 mmHg 63%
    Show more